Location: East Irvine
(33.6759°N, 117.7598°W)
Time: 22:50:26
(UTC+00:00)

CZ-2D R/B - Pass Details

Date: 15 November 2025
Orbit: 403 x 411 km, 97.4° (Epoch: 12 December)

Event Time Altitude Azimuth Distance (km) Brightness Sun altitude
Rises 01:36:32 0° 171° (S) 2,337 6.6 -10.3°
Reaches altitude 10° 01:38:31 10° 173° (S) 1,476 5.6 -10.7°
Maximum altitude 01:41:40 75° 258° (WSW) 429 2.9 -11.4°
Drops below altitude 10° 01:44:49 10° 345° (NNW) 1,477 5.5 -12.0°
Sets 01:46:48 0° 347° (NNW) 2,340 6.5 -12.4°
